Location: Unspecified
(0.0000°N, 0.0000°E)
Time: 17:35:59
(UTC+00:00)

Envisat - Visible Passes

Search period start: 24 May 2017 00:00
Search period end: 03 June 2017 00:00
Orbit: 764 x 766 km, 98.2° (Epoch: 24 May)

Date Brightness Start Highest point End Pass type
(mag) Time Alt. Az. Time Alt. Az. Time Alt. Az.
24 May 5.6 20:51:24 13° NNW 20:51:24 13° NNW 20:51:58 10° NNW visible
25 May 5.2 20:14:12 16° N 20:14:12 16° N 20:15:11 10° N visible
27 May 5.4 20:40:01 16° NNW 20:40:01 16° NNW 20:40:59 10° NNW visible
28 May 5.1 20:02:50 15° NNE 20:02:50 15° NNE 20:03:50 10° NNE visible
29 May 5.8 21:05:50 12° NW 21:05:50 12° NW 21:06:11 10° NNW visible
30 May 5.2 20:28:40 18° N 20:28:40 18° N 20:29:55 10° N visible
31 May 5.1 19:51:29 14° NNE 19:51:29 14° NNE 19:52:20 10° NNE visible
01 Jun 5.6 20:54:30 15° NNW 20:54:30 15° NNW 20:55:22 10° NNW visible
02 Jun 5.0 20:17:19 19° N 20:17:19 19° N 20:18:43 10° N visible
